Lid_Strength_Index
5 5 5 5 6 6 5 4 6 2 1 6 5 7 6 6 5 4 5 6 7 7 7 8 8 7 6 5 5 7 6 7 12 10 7 6 8 10 11 14 17 15 17 16
5 5 5 5 6 6 5 5 4 1 3 8 7 5 6 5 5 5 6 6 6 6 7 8 7 7 5 5 5 6 6 8 11 13 11 8 9 10 10 10 12 15 17 14
4 5 4 5 5 6 5 4 6 4 3 4 6 6 7 7 4 5 5 5 5 6 7 6 8 7 5 5 5 5 5 7 9 14 13 10 11 9 9 9 14 14 14 11
4 4 4 4 5 5 4 4 5 4 7 6 6 6 6 7 7 5 5 6 6 7 8 7 7 6 6 5 4 5 6 8 8 7 9 9 10 11 11 9 10 12 11 11
4 4 4 4 4 6 3 7 7 5 6 5 6 6 6 7 6 6 7 7 6 6 7 7 7 6 6 6 5 6 6 9 7 9 9 10 12 12 12 9 9 9 8 9
4 4 3 4 4 5 4 4 4 5 7 6 6 6 6 6 5 5 5 6 6 7 6 5 5 5 5 5 6 6 7 7 9 11 8 11 14 11 10 9 9 9 10 8
4 3 3 3 4 5 4 3 5 6 8 6 6 6 6 6 6 7 5 5 6 5 3 3 4 4 5 5 5 5 7 7 8 10 11 16 11 7 8 9 8 8 7 7
4 3 3 3 3 4 3 3 4 6 9 7 7 6 6 5 5 6 6 5 4 3 4 7 8 8 7 7 6 6 5 7 9 11 11 9 9 8 9 9 9 7 7 6
4 3 3 2 3 3 3 3 2 5 8 7 6 6 6 7 7 6 5 3 2 3 6 8 11 12 9 9 8 6 6 6 8 10 12 13 8 6 5 6 9 6 5 5
3 3 3 2 2 2 3 3 3 5 8 6 6 8 7 5 6 7 6 5 5 4 8 10 10 10 7 10 9 9 8 8 10 10 11 9 6 6 5 11 10 7 6 6
2 2 2 2 2 2 3 3 2 5 7 7 6 5 6 6 6 8 5 6 6 6 9 9 9 9 8 8 8 8 9 10 10 9 11 12 5 5 8 7 6 7 6 6
2 2 2 1 2 2 2 4 2 2 6 7 4 4 4 4 4 5 5 6 6 6 8 8 8 9 8 9 11 6 9 7 8 8 8 6 4 5 5 4 5 5 5 5
1 1 1 1 1 1 2 3 2 3 6 7 6 5 3 1 2 1 6 5 4 5 4 6 7 10 8 10 9 8 7 5 7 7 6 5 5 4 3 3 4 3 4 4
1 1 1 1 1 1 2 3 2 4 6 10 7 2 2 1 1 1 2 3 3 3 4 6 7 9 7 9 8 8 7 6 7 6 5 5 5 4 3 3 3 3 3 3
1 1 1 1 1 2 2 2 2 3 6 9 7 4 2 1 1 2 2 3 4 5 6 7 8 6 7 6 7 8 6 6 8 8 6 5 4 3 3 3 3 3 3 4
1 1 1 1 2 2 4 5 3 2 3 8 11 3 3 2 2 3 3 3 3 4 6 6 6 4 6 9 9 6 5 5 4 6 5 5 4 3 3 3 3 3 3 3
1 1 2 2 2 3 5 5 5 3 3 8 10 8 4 3 3 3 4 3 4 4 5 6 6 6 6 8 10 6 5 5 5 5 4 5 3 4 3 3 3 3 3 3
1 1 2 2 2 3 5 3 3 3 5 6 10 9 6 4 6 7 4 5 5 5 6 5 7 6 6 9 6 5 5 4 4 6 4 4 3 2 3 3 3 3 4 4
1 2 2 2 4 5 4 2 2 2 4 8 8 10 11 4 7 5 6 6 9 5 7 7 6 7 9 6 6 5 5 5 4 4 4 3 3 3 3 3 4 4 4 4
2 2 4 6 3 2 2 3 6 6 6 7 10 6 9 6 7 8 8 7 9 11 8 5 8 8 5 4 4 4 4 4 4 6 7 5 5 4 4 4 4 4 4 5
2 4 5 3 2 3 4 7 8 8 10 9 8 7 9 5 8 9 7 10 8 12 9 9 9 9 6 4 4 3 3 3 3 3 4 4 5 6 7 4 4 4 4 4
4 4 3 2 4 6 8 9 8 9 11 8 9 8 7 7 5 8 7 10 9 12 7 10 11 8 5 4 4 3 3 3 3 3 4 5 4 5 6 5 5 4 3 3
2 4 7 6 7 12 11 12 11 11 8 7 7 9 7 7 6 9 9 11 11 7 11 11 9 7 6 4 4 3 3 3 3 3 3 3 4 4 4 4 4 4 4 3
5 7 12 9 10 9 9 9 9 7 6 6 6 8 9 8 9 9 12 9 9 12 13 11 9 7 6 5 5 4 3 3 3 4 4 4 4 4 4 3 3 3 3 3
6 6 11 9 6 6 6 5 5 5 5 6 7 7 8 10 11 10 11 13 14 12 12 9 7 6 6 5 5 4 4 3 4 3 4 4 4 4 4 3 2 3 3 2
5 6 8 6 7 7 6 6 7 4 5 5 6 9 11 11 11 12 12 13 13 12 9 8 6 6 5 5 4 4 3 3 4 3 3 4 4 4 4 3 3 2 3 3
6 7 5 6 6 6 6 5 5 3 5 9 9 12 12 9 12 13 11 13 10 9 8 6 6 6 5 5 4 4 3 4 4 4 3 3 3 3 3 4 3 2 2 2